Voltar ao catálogo

IRIDIUM 129

AtivoComunicaçõesPO
NORAD 42958·PAYLOAD·🇺🇸 United States

Lançado Oct 9, 2017 de Vandenberg Space Force Base

Loading…

Próximas Passagens (próximas 24 horas)

TLE

AtualizadoSource: CelesTrak SupGP

Época: Sep 14, 2026, 08:09 UTC

1 42958C 17061D   26257.33993056 -.00004644  00000+0 -16604-2 0  2578
2 42958  86.4029 348.0004 0002341 101.0906 348.5889 14.34222932    13

Acompanhe IRIDIUM 129 em tempo real com AllMySat

Download on the App Store